| time (UTC) | temp F | wind direction | speed MPH | gust MPH | rain 1hr in | rain 24hr in | rain mn in | humidity % | barometer mb |
| 20260507071142 | 46 | 314 | 0.0 | 6.0 | 0.00 | 0.36 | 0.01 | 99 | 1012.8 |
| 20260507070143 | 46 | 335 | 0.0 | 8.0 | 0.00 | 0.37 | 0.01 | 99 | 1012.6 |
| 20260507065143 | 46 | 325 | 1.0 | 7.0 | 0.00 | 0.38 | 0.01 | 99 | 1012.6 |
| 20260507064144 | 46 | 54 | 2.0 | 3.0 | 0.00 | 0.39 | 0.01 | 99 | 1012.5 |
| 20260507063143 | 46 | 36 | 1.0 | 6.0 | 0.00 | 0.40 | 0.01 | 99 | 1012.5 |
| 20260507061143 | 46 | 330 | 2.0 | 4.0 | 0.00 | 0.42 | 0.01 | 99 | 1012.3 |
| 20260507060144 | 46 | 311 | 2.0 | 4.0 | 0.00 | 0.44 | 0.01 | 99 | 1012.1 |
| 20260507055143 | 46 | 38 | 1.0 | 4.0 | 0.00 | 0.46 | 0.01 | 99 | 1012.0 |
| 20260507054144 | 46 | 345 | 1.0 | 4.0 | 0.00 | 0.49 | 0.01 | 99 | 1011.9 |
| 20260507053143 | 46 | 21 | 0.0 | 3.0 | 0.00 | 0.50 | 0.01 | 99 | 1012.0 |
| 20260507051143 | 46 | 45 | 1.0 | 4.0 | 0.00 | 0.53 | 0.01 | 99 | 1011.7 |
| 20260507050142 | 46 | 24 | 2.0 | 3.0 | 0.00 | 0.54 | 0.01 | 99 | 1011.4 |
| 20260507045143 | 46 | 310 | 0.0 | 2.0 | 0.00 | 0.55 | 0.01 | 99 | 1011.3 |
| 20260507044143 | 46 | 40 | 0.0 | 3.0 | 0.00 | 0.56 | 0.01 | 99 | 1011.4 |
| 20260507043143 | 46 | 17 | 0.0 | 2.0 | 0.00 | 0.58 | 0.01 | 99 | 1011.4 |
| 20260507041143 | 46 | 57 | 0.0 | 4.0 | 0.00 | 0.60 | 0.01 | 99 | 1011.1 |
| 20260507040143 | 46 | 331 | 0.0 | 3.0 | 0.00 | 0.61 | 0.01 | 99 | 1011.1 |
| 20260507035142 | 46 | 309 | 2.0 | 4.0 | 0.00 | 0.63 | 0.01 | 99 | 1011.1 |
| 20260507034142 | 46 | 330 | 0.0 | 3.0 | 0.00 | 0.65 | 0.01 | 99 | 1010.9 |
| 20260507033143 | 46 | 298 | 0.0 | 2.0 | 0.00 | 0.68 | 0.01 | 99 | 1011.0 |
| 20260507032143 | 46 | 23 | 0.0 | 3.0 | 0.00 | 0.70 | 0.01 | 99 | 1010.9 |
| 20260507030143 | 46 | 334 | 0.0 | 2.0 | 0.00 | 0.76 | 0.01 | 99 | 1010.6 |
| 20260507025143 | 46 | 352 | 1.0 | 6.0 | 0.00 | 0.78 | 0.01 | 99 | 1010.7 |
| 20260507024131 | 46 | 24 | 1.0 | 2.0 | 0.00 | 0.82 | 0.01 | 99 | 1010.6 |
| 20260507022131 | 46 | 318 | 1.0 | 3.0 | 0.00 | 0.86 | 0.01 | 99 | 1010.6 |
| 20260507020130 | 46 | 303 | 0.0 | 3.0 | 0.00 | 0.90 | 0.01 | 99 | 1010.3 |
| 20260507015132 | 46 | 29 | 2.0 | 3.0 | 0.00 | 0.92 | 0.01 | 99 | 1010.4 |
| 20260507014131 | 46 | 36 | 2.0 | 3.0 | 0.00 | 0.93 | 0.01 | 99 | 1010.3 |
| 20260507013131 | 46 | 332 | 0.0 | 2.0 | 0.00 | 0.95 | 0.01 | 99 | 1010.3 |
| 20260507012131 | 46 | 17 | 0.0 | 2.0 | 0.00 | 0.96 | 0.01 | 99 | 1010.2 |
| 20260507011131 | 46 | 27 | 0.0 | 3.0 | 0.00 | 0.98 | 0.01 | 99 | 1010.1 |
| 20260507010131 | 46 | 30 | 0.0 | 2.0 | 0.00 | 0.99 | 0.01 | 99 | 1010.1 |
| 20260507005131 | 46 | 16 | 0.0 | 1.0 | 0.00 | 1.01 | 0.01 | 99 | 1009.9 |
| 20260507003131 | 46 | 279 | 0.0 | 2.0 | 0.00 | 1.06 | 0.01 | 99 | 1010.0 |
| 20260507002131 | 46 | 338 | 0.0 | 2.0 | 0.00 | 1.08 | 0.01 | 99 | 1010.0 |
| 20260507001106 | 46 | 27 | 1.0 | 3.0 | 0.00 | 1.10 | 0.01 | 99 | 1010.0 |
| 20260507000107 | 46 | 17 | 0.0 | 4.0 | 0.01 | 1.11 | 0.01 | 99 | 1009.9 |
| 20260506235107 | 46 | 305 | 0.0 | 2.0 | 0.01 | 1.12 | 0.01 | 99 | 1009.8 |
| 20260506234055 | 46 | 31 | 1.0 | 3.0 | 0.01 | 1.14 | 0.01 | 99 | 1009.9 |
| 20260506233055 | 46 | 353 | 2.0 | 6.0 | 0.01 | 1.15 | 0.01 | 99 | 1009.9 |
| 20260506231055 | 46 | 67 | 2.0 | 4.0 | 0.01 | 1.17 | 0.01 | 99 | 1009.8 |
| 20260506230055 | 46 | 50 | 1.0 | 6.0 | 0.00 | 1.18 | 0.00 | 99 | 1009.8 |
| 20260506225055 | 46 | 37 | 2.0 | 6.0 | 0.00 | 1.19 | 0.00 | 99 | 1009.9 |
| 20260506224055 | 46 | 19 | 2.0 | 4.0 | 0.00 | 1.21 | 0.00 | 99 | 1009.7 |
| 20260506223057 | 46 | 28 | 3.0 | 6.0 | 0.01 | 1.22 | 0.00 | 99 | 1009.8 |
| 20260506221055 | 46 | 5 | 0.0 | 3.0 | 0.01 | 1.24 | 0.00 | 99 | 1009.4 |
| 20260506220055 | 46 | 338 | 0.0 | 4.0 | 0.01 | 1.24 | 0.00 | 99 | 1009.4 |
| 20260506215055 | 46 | 339 | 1.0 | 4.0 | 0.01 | 1.24 | 1.24 | 99 | 1009.4 |
| 20260506213055 | 46 | 339 | 0.0 | 3.0 | 0.00 | 1.23 | 1.23 | 99 | 1009.4 |
| 20260506212055 | 46 | 40 | 0.0 | 3.0 | 0.00 | 1.23 | 1.23 | 99 | 1009.4 |
| 20260506211056 | 46 | 44 | 0.0 | 2.0 | 0.00 | 1.24 | 1.23 | 99 | 1009.2 |
| 20260506210055 | 46 | 351 | 0.0 | 2.0 | 0.00 | 1.24 | 1.23 | 99 | 1009.2 |
| 20260506205055 | 46 | 332 | 1.0 | 2.0 | 0.00 | 1.24 | 1.23 | 99 | 1009.1 |
| 20260506203055 | 46 | 28 | 0.0 | 6.0 | 0.00 | 1.24 | 1.23 | 99 | 1009.1 |
| 20260506202054 | 46 | 66 | 2.0 | 3.0 | 0.00 | 1.24 | 1.23 | 99 | 1009.1 |
| 20260506201055 | 46 | 354 | 1.0 | 3.0 | 0.00 | 1.24 | 1.23 | 99 | 1008.8 |
| 20260506200055 | 46 | 39 | 0.0 | 3.0 | 0.00 | 1.24 | 1.23 | 99 | 1008.8 |
| 20260506195055 | 46 | 349 | 0.0 | 6.0 | 0.00 | 1.24 | 1.23 | 99 | 1009.0 |
| 20260506193055 | 46 | 312 | 2.0 | 7.0 | 0.00 | 1.24 | 1.23 | 99 | 1008.6 |
| 20260506191055 | 46 | 9 | 2.0 | 3.0 | 0.00 | 1.24 | 1.23 | 99 | 1008.4 |
| 20260506190055 | 46 | 60 | 1.0 | 6.0 | 0.00 | 1.24 | 1.23 | 99 | 1008.3 |
| 20260506185055 | 46 | 356 | 1.0 | 7.0 | 0.00 | 1.24 | 1.23 | 99 | 1008.3 |
| 20260506184055 | 46 | 35 | 1.0 | 3.0 | 0.00 | 1.24 | 1.23 | 99 | 1008.0 |
| 20260506183055 | 46 | 56 | 2.0 | 7.0 | 0.00 | 1.24 | 1.23 | 99 | 1008.1 |
| 20260506181055 | 46 | 344 | 0.0 | 6.0 | 0.00 | 1.24 | 1.23 | 99 | 1008.1 |
| 20260506180055 | 46 | 75 | 1.0 | 6.0 | 0.00 | 1.24 | 1.23 | 99 | 1007.7 |
| 20260506175055 | 46 | 7 | 0.0 | 4.0 | 0.00 | 1.24 | 1.23 | 99 | 1007.6 |
| 20260506174055 | 46 | 7 | 1.0 | 6.0 | 0.00 | 1.24 | 1.23 | 99 | 1007.6 |
| 20260506173055 | 46 | 24 | 2.0 | 8.0 | 0.01 | 1.24 | 1.23 | 99 | 1007.6 |
| 20260506172055 | 46 | 38 | 1.0 | 4.0 | 0.01 | 1.24 | 1.23 | 99 | 1007.3 |
| 20260506171055 | 46 | 75 | 1.0 | 3.0 | 0.01 | 1.24 | 1.23 | 99 | 1007.4 |
| 20260506170055 | 46 | 31 | 2.0 | 6.0 | 0.02 | 1.24 | 1.23 | 99 | 1007.4 |
| 20260506164055 | 46 | 8 | 1.0 | 7.0 | 0.03 | 1.24 | 1.23 | 99 | 1007.4 |
| 20260506163055 | 47 | 320 | 3.0 | 8.0 | 0.03 | 1.23 | 1.22 | 99 | 1007.3 |
| 20260506162055 | 47 | 7 | 2.0 | 4.0 | 0.04 | 1.23 | 1.22 | 99 | 1007.1 |
| 20260506161055 | 47 | 28 | 1.0 | 8.0 | 0.05 | 1.23 | 1.22 | 99 | 1007.1 |
| 20260506155055 | 47 | 17 | 0.0 | 7.0 | 0.06 | 1.22 | 1.21 | 99 | 1007.3 |
| 20260506154055 | 47 | 37 | 3.0 | 8.0 | 0.07 | 1.21 | 1.20 | 99 | 1007.1 |
| 20260506153055 | 47 | 26 | 0.0 | 7.0 | 0.07 | 1.20 | 1.19 | 99 | 1007.0 |
| 20260506152055 | 48 | 59 | 1.0 | 10.0 | 0.07 | 1.19 | 1.18 | 99 | 1007.0 |
| 20260506151055 | 48 | 36 | 4.0 | 4.0 | 0.07 | 1.18 | 1.17 | 99 | 1007.2 |
| 20260506150055 | 47 | 29 | 1.0 | 8.0 | 0.06 | 1.16 | 1.15 | 99 | 1007.1 |
| 20260506145054 | 47 | 77 | 0.0 | 9.0 | 0.06 | 1.15 | 1.15 | 99 | 1007.0 |
| 20260506143055 | 47 | 156 | 0.0 | 8.0 | 0.06 | 1.13 | 1.12 | 99 | 1007.1 |
| 20260506142055 | 47 | 296 | 2.0 | 7.0 | 0.05 | 1.12 | 1.11 | 99 | 1006.8 |
| 20260506141055 | 47 | 19 | 1.0 | 4.0 | 0.05 | 1.11 | 1.10 | 99 | 1006.9 |
| 20260506140055 | 47 | 22 | 4.0 | 4.0 | 0.04 | 1.10 | 1.09 | 99 | 1006.9 |
| 20260506135055 | 47 | 31 | 1.0 | 6.0 | 0.04 | 1.09 | 1.08 | 99 | 1006.8 |
| 20260506134055 | 47 | 72 | 0.0 | 4.0 | 0.03 | 1.08 | 1.07 | 99 | 1007.0 |
| 20260506132056 | 47 | 117 | 1.0 | 7.0 | 0.03 | 1.07 | 1.06 | 99 | 1006.8 |
| 20260506131054 | 47 | 344 | 2.0 | 4.0 | 0.02 | 1.06 | 1.05 | 99 | 1006.8 |
| 20260506130055 | 47 | 38 | 0.0 | 3.0 | 0.03 | 1.06 | 1.05 | 99 | 1006.7 |
| 20260506125055 | 47 | 44 | 0.0 | 4.0 | 0.02 | 1.05 | 1.04 | 99 | 1006.8 |
| 20260506123054 | 47 | 2 | 2.0 | 6.0 | 0.03 | 1.05 | 1.04 | 99 | 1006.7 |
| 20260506122055 | 46 | 87 | 0.0 | 7.0 | 0.02 | 1.04 | 1.03 | 99 | 1006.5 |
| 20260506121055 | 46 | 53 | 0.0 | 4.0 | 0.03 | 1.04 | 1.03 | 99 | 1006.5 |
| 20260506120055 | 46 | 46 | 0.0 | 4.0 | 0.02 | 1.03 | 1.02 | 99 | 1006.3 |
| 20260506115054 | 46 | 94 | 0.0 | 2.0 | 0.03 | 1.03 | 1.02 | 99 | 1006.2 |
| 20260506113055 | 46 | 139 | 1.0 | 7.0 | 0.03 | 1.02 | 1.01 | 99 | 1006.4 |
| 20260506112055 | 46 | 31 | 0.0 | 7.0 | 0.04 | 1.02 | 1.01 | 99 | 1006.2 |
| 20260506110055 | 45 | 176 | 0.0 | 6.0 | 0.04 | 1.01 | 1.00 | 99 | 1006.4 |
| 20260506105054 | 46 | 53 | 1.0 | 7.0 | 0.04 | 1.00 | 1.00 | 99 | 1006.4 |
| 20260506104055 | 45 | 346 | 1.0 | 4.0 | 0.05 | 1.00 | 0.99 | 99 | 1006.2 |
| 20260506103055 | 45 | 330 | 2.0 | 4.0 | 0.05 | 0.99 | 0.98 | 99 | 1006.1 |
| 20260506102054 | 45 | 103 | 2.0 | 6.0 | 0.05 | 0.98 | 0.98 | 99 | 1006.1 |
| 20260506101055 | 45 | 335 | 4.0 | 4.0 | 0.05 | 0.98 | 0.97 | 99 | 1006.0 |
| 20260506100054 | 45 | 27 | 2.0 | 7.0 | 0.04 | 0.97 | 0.96 | 99 | 1006.2 |
| 20260506095055 | 45 | 27 | 1.0 | 6.0 | 0.03 | 0.96 | 0.95 | 99 | 1006.1 |
| 20260506093055 | 44 | 58 | 0.0 | 4.0 | 0.01 | 0.94 | 0.93 | 99 | 1005.7 |
| 20260506092054 | 45 | 48 | 1.0 | 4.0 | 0.00 | 0.93 | 0.92 | 99 | 1005.7 |
| 20260506091055 | 44 | 91 | 0.0 | 4.0 | 0.01 | 0.93 | 0.92 | 99 | 1005.7 |
| 20260506085055 | 44 | 78 | 0.0 | 6.0 | 0.01 | 0.93 | 0.92 | 99 | 1005.5 |
| 20260506084054 | 44 | 56 | 2.0 | 6.0 | 0.01 | 0.93 | 0.92 | 99 | 1005.6 |
| 20260506083055 | 44 | 131 | 3.0 | 4.0 | 0.02 | 0.93 | 0.92 | 99 | 1005.6 |
| 20260506082055 | 44 | 11 | 2.0 | 9.0 | 0.03 | 0.93 | 0.92 | 99 | 1005.4 |
| 20260506081055 | 44 | 16 | 2.0 | 7.0 | 0.02 | 0.92 | 0.91 | 99 | 1005.3 |
| 20260506073055 | 44 | 322 | 1.0 | 7.0 | 0.05 | 0.91 | 0.90 | 99 | 1005.3 |